TimeEST,TemperatureF,Dew PointF,Humidity,Sea Level PressureIn,VisibilityMPH,Wind Direction,Wind SpeedMPH,Gust SpeedMPH,PrecipitationIn,Events,Conditions,WindDirDegrees,DateUTC
12:15 AM,32.0,27.5,83,30.05,10.0,West,4.6,-,N/A,,Scattered Clouds,260,2012-12-14 05:15:00
12:35 AM,32.0,27.5,83,30.06,10.0,West,4.6,-,N/A,,Clear,270,2012-12-14 05:35:00
1:15 AM,31.8,27.3,83,30.06,10.0,West,4.6,-,N/A,,Scattered Clouds,270,2012-12-14 06:15:00
1:35 AM,31.6,28.0,87,30.07,10.0,West,4.6,-,N/A,,Mostly Cloudy,280,2012-12-14 06:35:00
1:56 AM,32.0,28.9,88,30.08,10.0,West,4.6,-,N/A,,Overcast,280,2012-12-14 06:56:00
2:15 AM,32.2,29.5,90,30.09,10.0,WNW,4.6,-,N/A,,Overcast,290,2012-12-14 07:15:00
2:35 AM,33.1,30.7,91,30.09,10.0,NW,5.8,-,N/A,,Overcast,310,2012-12-14 07:35:00
2:55 AM,33.4,31.1,91,30.10,10.0,NW,5.8,-,N/A,,Overcast,310,2012-12-14 07:55:00
3:15 AM,33.4,30.7,90,30.11,10.0,NW,8.1,-,N/A,,Overcast,310,2012-12-14 08:15:00
3:35 AM,33.4,30.2,88,30.11,10.0,NW,6.9,-,N/A,,Overcast,310,2012-12-14 08:35:00
3:55 AM,33.3,29.3,85,30.11,10.0,NW,9.2,-,N/A,,Overcast,320,2012-12-14 08:55:00
4:15 AM,33.1,29.3,86,30.12,10.0,NW,5.8,-,N/A,,Overcast,310,2012-12-14 09:15:00
4:35 AM,32.9,28.9,85,30.12,10.0,NW,9.2,-,N/A,,Overcast,310,2012-12-14 09:35:00
4:56 AM,32.5,28.8,86,30.12,10.0,NW,8.1,-,N/A,,Overcast,320,2012-12-14 09:56:00
5:15 AM,32.2,28.4,86,30.13,10.0,NW,9.2,-,N/A,,Overcast,320,2012-12-14 10:15:00
5:35 AM,32.0,28.0,85,30.13,10.0,NW,6.9,-,N/A,,Overcast,320,2012-12-14 10:35:00
5:56 AM,32.0,27.9,85,30.14,10.0,NW,6.9,-,N/A,,Overcast,310,2012-12-14 10:56:00
6:15 AM,32.0,27.5,83,30.15,10.0,WNW,6.9,-,N/A,,Overcast,300,2012-12-14 11:15:00
6:35 AM,31.8,27.1,83,30.15,10.0,NW,9.2,-,N/A,,Overcast,320,2012-12-14 11:35:00
6:56 AM,31.1,25.7,80,30.16,10.0,NNW,10.4,17.3,N/A,,Overcast,330,2012-12-14 11:56:00
7:15 AM,30.7,25.0,79,30.17,10.0,NW,5.8,-,N/A,,Overcast,310,2012-12-14 12:15:00
7:35 AM,30.7,24.8,79,30.17,10.0,West,3.5,-,N/A,,Overcast,270,2012-12-14 12:35:00
7:55 AM,30.7,24.8,79,30.18,10.0,West,5.8,-,N/A,,Overcast,280,2012-12-14 12:55:00
8:15 AM,30.2,24.6,80,30.19,10.0,West,5.8,-,N/A,,Overcast,280,2012-12-14 13:15:00
8:35 AM,30.2,24.6,80,30.19,10.0,West,8.1,-,N/A,,Overcast,270,2012-12-14 13:35:00
8:55 AM,30.2,24.4,79,30.20,10.0,West,6.9,-,N/A,,Overcast,270,2012-12-14 13:55:00
9:15 AM,30.2,24.3,79,30.21,10.0,West,6.9,-,N/A,,Overcast,280,2012-12-14 14:15:00
9:35 AM,30.6,24.3,77,30.21,10.0,West,4.6,-,N/A,,Overcast,280,2012-12-14 14:35:00
9:55 AM,30.2,24.8,80,30.22,10.0,NNW,5.8,-,N/A,,Overcast,330,2012-12-14 14:55:00
10:15 AM,30.2,24.6,80,30.23,10.0,NW,6.9,-,N/A,,Overcast,310,2012-12-14 15:15:00
10:35 AM,30.2,23.9,77,30.23,10.0,NNW,3.5,-,N/A,,Overcast,330,2012-12-14 15:35:00
10:55 AM,30.7,24.4,77,30.24,10.0,NNW,4.6,-,N/A,,Overcast,330,2012-12-14 15:55:00
11:16 AM,30.7,23.9,76,30.24,10.0,NW,3.5,-,N/A,,Overcast,310,2012-12-14 16:16:00
11:35 AM,30.6,23.7,76,30.24,10.0,Calm,Calm,-,N/A,,Overcast,0,2012-12-14 16:35:00
11:55 AM,30.9,24.4,77,30.23,10.0,North,5.8,-,N/A,,Overcast,360,2012-12-14 16:55:00
12:16 PM,30.9,24.6,77,30.24,10.0,North,5.8,-,N/A,,Overcast,350,2012-12-14 17:16:00
12:35 PM,30.7,24.3,77,30.24,10.0,NNW,3.5,-,N/A,,Overcast,340,2012-12-14 17:35:00
12:55 PM,31.5,24.6,76,30.24,10.0,WNW,4.6,-,N/A,,Overcast,290,2012-12-14 17:55:00
1:15 PM,30.9,24.1,76,30.24,10.0,North,4.6,-,N/A,,Overcast,350,2012-12-14 18:15:00
1:35 PM,31.1,24.6,77,30.24,10.0,North,4.6,-,N/A,,Mostly Cloudy,360,2012-12-14 18:35:00
1:55 PM,31.3,24.6,76,30.23,10.0,North,4.6,-,N/A,,Mostly Cloudy,10,2012-12-14 18:55:00
2:15 PM,31.8,25.2,76,30.23,10.0,North,3.5,-,N/A,,Mostly Cloudy,10,2012-12-14 19:15:00
2:35 PM,31.1,24.8,77,30.23,10.0,North,5.8,-,N/A,,Scattered Clouds,10,2012-12-14 19:35:00
2:55 PM,31.1,24.6,77,30.22,10.0,NE,3.5,-,N/A,,Clear,50,2012-12-14 19:55:00
3:15 PM,31.1,24.4,76,30.22,10.0,NNE,4.6,-,N/A,,Clear,30,2012-12-14 20:15:00
3:35 PM,30.9,24.4,77,30.23,10.0,ENE,4.6,-,N/A,,Scattered Clouds,60,2012-12-14 20:35:00
3:55 PM,30.2,24.6,80,30.23,10.0,NE,3.5,-,N/A,,Scattered Clouds,40,2012-12-14 20:55:00
4:15 PM,29.3,24.6,83,30.23,10.0,East,3.5,-,N/A,,Clear,80,2012-12-14 21:15:00
4:36 PM,29.1,24.8,84,30.23,10.0,Calm,Calm,-,N/A,,Clear,0,2012-12-14 21:36:00
5:15 PM,27.9,24.4,87,30.23,10.0,NE,3.5,-,N/A,,Clear,40,2012-12-14 22:15:00
5:36 PM,27.5,24.4,88,30.22,10.0,ENE,3.5,-,N/A,,Scattered Clouds,60,2012-12-14 22:36:00
5:55 PM,27.5,24.8,90,30.22,10.0,NE,3.5,-,N/A,,Clear,50,2012-12-14 22:55:00
6:15 PM,28.2,25.7,90,30.21,10.0,East,3.5,-,N/A,,Scattered Clouds,80,2012-12-14 23:15:00
6:36 PM,28.4,25.7,90,30.21,10.0,East,5.8,-,N/A,,Scattered Clouds,80,2012-12-14 23:36:00
7:15 PM,27.7,25.5,92,30.23,10.0,East,3.5,-,N/A,,Clear,90,2012-12-15 00:15:00
7:35 PM,27.9,25.5,91,30.23,10.0,East,3.5,-,N/A,,Clear,90,2012-12-15 00:35:00
7:55 PM,28.0,25.5,90,30.23,10.0,ESE,3.5,-,N/A,,Clear,110,2012-12-15 00:55:00
8:15 PM,26.8,24.4,91,30.24,10.0,ESE,3.5,-,N/A,,Clear,120,2012-12-15 01:15:00
8:55 PM,25.7,23.7,92,30.25,10.0,ESE,4.6,-,N/A,,Clear,120,2012-12-15 01:55:00
9:16 PM,27.0,24.8,92,30.24,10.0,SE,4.6,-,N/A,,Clear,140,2012-12-15 02:16:00
9:35 PM,26.6,24.4,92,30.24,10.0,Calm,Calm,-,N/A,,Clear,0,2012-12-15 02:35:00
9:55 PM,27.0,24.8,92,30.25,10.0,SSE,4.6,-,N/A,,Clear,160,2012-12-15 02:55:00
10:16 PM,26.6,24.6,92,30.25,10.0,SE,4.6,-,N/A,,Clear,140,2012-12-15 03:16:00
10:35 PM,25.7,24.4,95,30.23,10.0,ESE,3.5,-,N/A,,Clear,110,2012-12-15 03:35:00
10:55 PM,25.7,24.6,96,30.23,10.0,Calm,Calm,-,N/A,,Clear,0,2012-12-15 03:55:00
11:16 PM,24.8,23.7,96,30.23,10.0,SE,3.5,-,N/A,,Clear,140,2012-12-15 04:16:00
11:35 PM,25.5,24.6,96,30.23,10.0,SSE,5.8,-,N/A,,Scattered Clouds,150,2012-12-15 04:35:00
11:55 PM,26.8,25.5,95,30.22,10.0,SE,6.9,-,N/A,,Overcast,140,2012-12-15 04:55:00